Hourly Data Report for September 17, 2017

All times are specified in Local Standard Time (LST). Add 1 hour to adjust for Daylight Saving Time where and when it is observed.

PENTICTON A
BRITISH COLUMBIA

49°27'45.000" N
119°36'08.000" W
344.40 m
1126146
71889
YYF

Download Data

Hourly Data (September 2017)
Hourly Data Report for September 17, 2017
Temp Definition
°C
Dew Point Temp Definition
°C
Rel Hum Definition
%
Wind Dir Definition
10's deg

Wind Spd Definition
km/h
Visibility Definition
km
Stn Press Definition
kPa
Hmdx Definition


Wind Chill Definition


Weather Definition


TIME
00:00 Legend Double Dagger 14.7 1.1 39 18 18 24.1 97.27     LegendNANA
01:00 Legend Double Dagger 14.1 2.2 44 14 13 24.1 97.26     Mostly Cloudy
02:00 Legend Double Dagger 13.7 2.1 45 13 19 24.1 97.23     LegendNANA
03:00 Legend Double Dagger 13.2 2.5 48 14 18 24.1 97.20     LegendNANA
04:00 Legend Double Dagger 8.1 0.5 59 35 5 24.1 97.17     Mainly Clear
05:00 Legend Double Dagger 6.8 -0.4 60 1 9 16.1 97.16     LegendNANA
06:00 Legend Double Dagger 7.4 0.2 60 3 6 24.1 97.16     LegendNANA
07:00 Legend Double Dagger 11.9 1.5 49 17 21 24.1 97.11     Cloudy
08:00 Legend Double Dagger 12.8 2.6 50 17 19 24.1 97.08     LegendNANA
09:00 Legend Double Dagger 14.6 1.3 40 15 23 24.1 97.01     LegendNANA
10:00 Legend Double Dagger 15.9 1.4 37 16 30 24.1 96.90     Cloudy
11:00 Legend Double Dagger 17.4 2.8 37 17 32 24.1 96.82     LegendNANA
12:00 Legend Double Dagger 20.0 1.2 28 19 48 24.1 96.69     LegendNANA
13:00 Legend Double Dagger 21.1 1.2 26 19 37 24.1 96.56     Mostly Cloudy
14:00 Legend Double Dagger 20.2 0.4 26 17 34 24.1 96.50     LegendNANA
15:00 Legend Double Dagger 20.2 0.7 27 17 33 24.1 96.45     LegendNANA
16:00 Legend Double Dagger 19.9 2.6 31 16 26 24.1 96.43     Cloudy
17:00 Legend Double Dagger 18.2 4.0 39 17 34 24.1 96.51     Rain Showers
18:00 Legend Double Dagger 17.7 3.0 37 20 17 24.1 96.39     LegendNANA
19:00 Legend Double Dagger 18.4 4.7 40 18 26 24.1 96.40     Cloudy
20:00 Legend Double Dagger 17.4 3.6 40 19 26 19.3 96.34     LegendNANA
21:00 Legend Double Dagger 17.6 2.9 37 19 27 19.3 96.27     LegendNANA
22:00 Legend Double Dagger 16.4 3.3 41 17 16 19.3 96.24     Mostly Cloudy
23:00 Legend Double Dagger 16.4 3.5 42 18 20 19.3 96.25     LegendNANA

Notes on Data Quality.

Legend

  • E = Estimated
  • M = Missing
  • NA = Not Available
  • ‡ = Partner data that is not subject to review by the National Climate Archives
Date modified: